Weather History for Van Nuys, CA

Change the Weather History Date:

Sunday, May 5, 2013

  Actual Average Record
Temperature  
Mean Temperature 62 °F -  
Max Temperature 69 °F 75 °F 93 °F (1997)
Min Temperature 57 °F 53 °F 48 °F (1999)
Degree Days  
Heating Degree Days 4    
Growing Degree Days 12 (Base 50)    
Moisture  
Dew Point 48 °F    
Average Humidity 63    
Maximum Humidity 82    
Minimum Humidity 47    
Precipitation  
Precipitation 0.00 in - - ()
Sea Level Pressure  
Sea Level Pressure 29.88 in    
Wind  
Wind Speed 12 mph (SSE)    
Max Wind Speed 21 mph    
Max Gust Speed 29 mph    
Visibility 10 miles    
Events      
Averages and records for this station are not official NWS values.
T = Trace of Precipitation, MM = Missing Value Source: NWS Daily Summary

Daily Weather History Graph

Daily Weather History Graph

Search for Another Location

Airport:

Trip Planner

Search our weather history database for the weather conditions in past years. The results will help you decide how hot, cold, wet, or windy it might be!

Date:

Astronomy

May. 05, 2013 Rise Set
Actual Time 6:00 AM PDT 7:41 PM PDT
Civil Twilight 5:33 AM PDT 8:08 PM PDT
Nautical Twilight 5:00 AM PDT 8:41 PM PDT
Astronomical Twilight 4:26 AM PDT 9:15 PM PDT
Moon 3:22 AM PDT (5/5) 3:55 PM PDT (5/5)
Length of Visible Light 14h 35m
Length of Day
13h 41m
Waning Crescent, 17% of the Moon is Illuminated
May 5
Waning Crescent
May 9
New
May 17
First Quarter
May 24
Full
May 31
Last Quarter

Hourly Weather History & Observations

Time (PDT) Temp. Dew Point Humidity Pressure Visibility Wind Dir Wind Speed Gust Speed Precip Events Conditions
12:51 AM 60.1 °F 48.9 °F 67% 29.83 in 10.0 mi SSE 9.2 mph - N/A   Overcast
1:51 AM 59.0 °F 48.0 °F 67% 29.82 in 10.0 mi SSE 11.5 mph - N/A   Overcast
2:51 AM 57.9 °F 46.9 °F 67% 29.81 in 10.0 mi SSE 10.4 mph - N/A   Overcast
3:51 AM 59.0 °F 46.9 °F 64% 29.81 in 10.0 mi South 8.1 mph - N/A   Overcast
4:51 AM 59.0 °F 48.0 °F 67% 29.80 in 10.0 mi SSE 13.8 mph - N/A   Overcast
5:51 AM 59.0 °F 48.0 °F 67% 29.81 in 10.0 mi South 11.5 mph - N/A   Overcast
6:42 AM 59.0 °F 48.2 °F 67% 29.85 in 10.0 mi South 9.2 mph - N/A   Overcast
6:51 AM 59.0 °F 48.9 °F 69% 29.84 in 10.0 mi South 11.5 mph - N/A   Overcast
7:18 AM 59.0 °F 48.2 °F 67% 29.86 in 10.0 mi South 10.4 mph - N/A   Overcast
7:51 AM 59.0 °F 48.9 °F 69% 29.86 in 10.0 mi SSE 10.4 mph - N/A   Overcast
8:51 AM 59.0 °F 48.9 °F 69% 29.88 in 10.0 mi South 11.5 mph - N/A   Overcast
9:51 AM 61.0 °F 48.0 °F 62% 29.89 in 10.0 mi South 13.8 mph 20.7 mph N/A   Overcast
10:49 AM 62.6 °F 46.4 °F 55% 29.92 in 10.0 mi South 15.0 mph 23.0 mph N/A   Overcast
10:51 AM 62.1 °F 46.9 °F 58% 29.91 in 10.0 mi South 13.8 mph 23.0 mph N/A   Overcast
11:51 AM 63.0 °F 46.0 °F 54% 29.90 in 10.0 mi SSE 20.7 mph 26.5 mph N/A   Mostly Cloudy
12:51 PM 66.0 °F 46.0 °F 48% 29.88 in 10.0 mi SSE 18.4 mph 26.5 mph N/A   Overcast
1:51 PM 66.0 °F 45.0 °F 47% 29.88 in 10.0 mi SSE 20.7 mph 28.8 mph N/A   Mostly Cloudy
2:51 PM 64.9 °F 46.0 °F 50% 29.89 in 10.0 mi SSW 13.8 mph 21.9 mph N/A   Mostly Cloudy
3:51 PM 64.0 °F 48.0 °F 56% 29.88 in 10.0 mi South 10.4 mph - N/A   Mostly Cloudy
4:27 PM 62.6 °F 48.2 °F 59% 29.89 in 10.0 mi South 11.5 mph 18.4 mph N/A   Overcast
4:51 PM 63.0 °F 48.9 °F 60% 29.88 in 10.0 mi South 13.8 mph - N/A   Overcast
5:51 PM 62.1 °F 48.0 °F 60% 29.88 in 10.0 mi SSW 11.5 mph 19.6 mph N/A   Mostly Cloudy
6:51 PM 61.0 °F 48.9 °F 64% 29.88 in 10.0 mi South 10.4 mph - N/A   Overcast
7:09 PM 60.8 °F 48.2 °F 63% 29.89 in 10.0 mi SSE 12.7 mph - N/A   Overcast
7:51 PM 61.0 °F 48.9 °F 64% 29.89 in 10.0 mi SSE 16.1 mph 20.7 mph N/A   Overcast
8:51 PM 59.0 °F 48.0 °F 67% 29.91 in 10.0 mi South 13.8 mph - N/A   Overcast
9:02 PM 60.8 °F 48.2 °F 63% 29.92 in 10.0 mi South 10.4 mph - N/A   Overcast
9:11 PM 60.8 °F 48.2 °F 63% 29.93 in 10.0 mi South 9.2 mph - N/A   Overcast
9:51 PM 60.1 °F 48.9 °F 67% 29.91 in 10.0 mi SSE 10.4 mph - N/A   Overcast
10:04 PM 60.8 °F 48.2 °F 63% 29.93 in 10.0 mi South 10.4 mph - N/A   Overcast
10:51 PM 60.1 °F 50.0 °F 69% 29.92 in 10.0 mi SSE 11.5 mph - N/A   Overcast
11:27 PM 57.2 °F 51.8 °F 82% 29.93 in 10.0 mi SE 6.9 mph - 0.00 in   Overcast
11:51 PM 57.9 °F 51.1 °F 78% 29.92 in 10.0 mi SE 6.9 mph - 0.00 in   Overcast